Skip Page Navigation
NASA JPL Caltech
NASA Logo - Jet Propulsion Laboratory + View the NASA Portal
+ Center for Near-Earth Object Studies
JPL Home Earth Solar System Stars & Galaxies Technology
JPL Solar System Dynamics
BODIES ORBITS EPHEMERIDES TOOLS PHYSICAL DATA DISCOVERY FAQ SITE MAP
JPL Small-Body Database Browser
Search: [ help ]  
78953 (2003 SC217)
Classification: Main-belt Asteroid          SPK-ID: 2078953
Ephemeris | Orbit Diagram | Orbital Elements | Mission Design | Physical Parameters | Discovery Circumstances | Close-Approach Data ]

[ show orbit diagram ]
Orbital Elements at Epoch 2459396.5 (2021-Jul-01.0) TDB
Reference: JPL 27 (heliocentric ecliptic J2000)
 Element Value Uncertainty (1-sigma)   Units 
e .2005089599091767 3.5596e-08  
a 3.034956181639325 1.4842e-08 au
q 2.426420274288897 1.0693e-07 au
i 5.938527399306072 5.2182e-06 deg
node 37.02888896828801 3.6135e-05 deg
peri 41.46760699584677 3.9103e-05 deg
M 90.7375624101678 1.2559e-05 deg
tp 2458909.743598295450
(2020-Mar-01.24359830)
6.7276e-05 TDB
period 1931.199163379793
5.29
1.4166e-05
3.878e-08
d
yr
n .186412673962619 1.3674e-09 deg/d
Q 3.643492088989752 1.7818e-08 au
  Orbit Determination Parameters
   # obs. used (total)      970  
   data-arc span      8208 days (22.47 yr)  
   first obs. used      1998-12-17  
   last obs. used      2021-06-07  
   planetary ephem.      DE441  
   SB-pert. ephem.      SB441-N16  
   condition code      0  
   norm. resid. RMS      .50048  
   source      ORB  
   producer      Otto Matic  
   solution date      2021-Jul-08 23:07:27  

Additional Information
 Earth MOID = 1.44547 au 
 Jupiter MOID = 1.66922 au 
 T_jup = 3.203 
[ hide covariance matrix ]
Orbital Elements at Epoch 2457573.5 (2016-Jul-04.0) TDB
Reference: JPL 27 (heliocentric ecliptic J2000)
 Element Value Uncertainty (1-sigma)   Units 
e .1990302807203989 3.5268e-08  
q 2.432451898170635 1.0564e-07 au
tp 2456980.500978577769
(2014-Nov-19.00097858)
7.0018e-05 TDB
node 37.0477486596191 3.6127e-05 deg
peri 41.87548034935637 3.9149e-05 deg
i 5.93815416251877 5.2174e-06 deg
  Orbit Determination Parameters
   # obs. used (total)      970  
   data-arc span      8208 days (22.47 yr)  
   first obs. used      1998-12-17  
   last obs. used      2021-06-07  
   planetary ephem.      DE441  
   SB-pert. ephem.      SB441-N16  
   condition code      0  
   norm. resid. RMS      .50048  
   source      ORB  
   producer      Otto Matic  
   solution date      2021-Jul-08 23:07:27  

Additional Information
 Jupiter MOID = 1.66922 au 
 T_jup = 3.203 
Orbit Covariance (6×6)
  e q tp node peri i
e 1.243820980754952E-15 -3.702337771501439E-15 -1.169102620335947E-12 1.190707993229603E-14 -2.688546368982174E-13 -6.386654043977272E-17
q -3.702337771501439E-15 1.116013898424703E-14 3.320602718447292E-12 -3.886265654471305E-14 7.81264825800568E-13 7.547812695111138E-16
tp -1.169102620335947E-12 3.320602718447292E-12 4.902518113141693E-9 -2.231586788353184E-11 1.065044381710665E-9 -9.467299752519382E-13
node 1.190707993229603E-14 -3.886265654471305E-14 -2.231586788353184E-11 1.305138393114223E-9 -1.30310901342283E-9 -6.091280790702971E-11
peri -2.688546368982174E-13 7.81264825800568E-13 1.065044381710665E-9 -1.30310901342283E-9 1.532616306101385E-9 6.048636593573918E-11
i -6.386654043977272E-17 7.547812695111138E-16 -9.467299752519382E-13 -6.091280790702971E-11 6.048636593573918E-11 2.722154530313198E-11

Ephemeris | Orbit Diagram | Orbital Elements | Mission Design | Physical Parameters | Discovery Circumstances | Close-Approach Data ]

Physical Parameter Table
Parameter Symbol Value Units Sigma Reference Notes
absolute magnitude H 14.84   n/a E2021B10  
diameter diameter 5.890 km 0.122 urn:nasa:pds:neowise_diameters_albedos::2.0[mainbelt] (http://adsabs.harvard.edu/abs/2011ApJ...741...68M)  
geometric albedo albedo 0.061   0.008 urn:nasa:pds:neowise_diameters_albedos::2.0[mainbelt] (http://adsabs.harvard.edu/abs/2011ApJ...741...68M)  

78953 (2003 SC217)          Discovered 2003-Sep-27 by Yeung, W. K. Y. at Desert Eagle
Reference: 20040415/Numbers.arcLast Updated: 2004-04-19

[ show close-approach data ]
Alternate Designations
 2003 SC217 = 2000 FX62 
Ephemeris | Orbit Diagram | Orbital Elements | Mission Design | Physical Parameters | Discovery Circumstances | Close-Approach Data ]
ABOUT SSD CREDITS/AWARDS PRIVACY/COPYRIGHT GLOSSARY LINKS
FirstGov 2021-Jul-30 10:01 UT
(server date/time)  
NASA Home Page
Site Manager:   Ryan S. Park
Webmaster  Alan B. Chamberlin